Location: ??????
(56.0120°N, 39.1740°E)
Time: 11:19:44
(UTC+00:00)

USA 229 - Pass Details

Date: 14 April 2026
Orbit: 843 x 1365 km, 63.4° (Epoch: 10 January)

Event Time Altitude Azimuth Distance (km) Brightness Sun altitude
Rises 23:41:53 0° 310° (NW) 3,958 6.7 -18.3°
Reaches altitude 10° 23:44:37 10° 304° (WNW) 3,071 6.1 -18.1°
Maximum altitude 23:51:26 41° 238° (WSW) 1,756 4.4 -17.5°
Drops below altitude 10° 23:58:53 10° 172° (S) 3,355 5.9 -16.8°
Sets 00:02:01 0° 166° (SSE) 4,359 6.6 -16.5°
